Location: Newark
(48.1500°N, 13.1167°E)
Time: 21:16:29
(UTC+00:00)

N. Korean satellite - Pass Details

Date: 05 October 2021
Orbit: 450 x 495 km, 97.3° (Epoch: 15 October)

Event Time Altitude Azimuth Distance (km) Brightness Sun altitude
Rises 03:31:19 0° 28° (NNE) 2,562 10.8 -17.6°
Reaches altitude 10° 03:33:54 10° 48° (NE) 1,684 10.2 -17.2°
Maximum altitude 03:36:26 18° 92° (E) 1,275 9.7 -16.8°
Drops below altitude 10° 03:38:57 10° 136° (SE) 1,686 9.7 -16.4°
Sets 03:41:33 0° 156° (SSE) 2,566 10.4 -15.9°
